[[{"header":{"parameterUnit":"m.s-1","parameterCategory":1,"la1":30.2992,"la2":30.254,"lo1":-89.0895,"lo2":-89.0443,"dy":0.0025,"dx":0.0025,"nx":19,"ny":19,"refTime":"2026-05-07T03:00:00:Z","depth":0,"parameterNumber":2,"parameterNumberName":"U-component_of_WINDS"},"data":[0,0,0,-1.757,-1.7572,-1.7665,-1.7666,-1.7771,-1.7772,0,0,0,0,0,0,0,0,0,0,0,-1.7534,-1.7534,-1.757,-1.7572,-1.7665,-1.7666,-1.7771,-1.7772,0,0,0,0,0,0,0,0,0,0,0,-1.7533,-1.7534,-1.7534,-1.7572,-1.7665,-1.7666,-1.777,-1.7705,0,0,0,0,0,0,0,0,0,0,-1.7617,-1.7575,-1.7534,-1.7534,-1.7573,-1.7665,-1.7666,-1.7702,-1.7709,-1.7722,0,-1.7732,0,-1.7753,-1.7778,-1.7778,0,0,0,-1.7578,-1.7569,-1.7602,-1.7534,-1.7573,-1.7665,-1.7625,-1.7706,-1.7714,-1.7731,-1.7733,-1.7738,-1.7755,-1.7778,-1.7779,-1.7832,-1.7832,0,0,-1.7573,-1.7546,-1.7596,-1.7606,-1.7591,-1.7622,-1.7628,-1.7711,-1.7712,-1.7734,-1.774,-1.7757,-1.7779,-1.778,-1.7832,-1.7832,0,0,0,-1.7554,-1.7542,-1.7573,-1.7602,-1.762,-1.7624,-1.7631,-1.7708,-1.772,-1.7742,-1.7758,-1.7779,-1.7781,-1.7832,-1.7832,-1.7802,0,0,0,-1.7551,-1.7531,-1.7571,-1.7555,-1.7618,-1.7665,-1.7626,-1.7715,-1.7725,-1.7757,-1.778,-1.7781,-1.7832,-1.7832,-1.7803,-1.7792,0,0,0,-1.753,-1.7528,-1.7539,-1.7553,-1.7592,-1.7664,-1.7682,-1.7717,-1.7734,-1.7778,-1.7782,-1.7832,-1.7832,-1.7804,-1.7794,-1.7798,0,0,0,-1.75,-1.7512,-1.7538,-1.7557,-1.7591,-1.7645,-1.7682,-1.7723,-1.7757,-1.778,-1.7832,-1.7832,-1.7804,-1.7795,-1.7798,-1.7795,-1.7792,0,0,-1.7499,-1.751,-1.7524,-1.755,-1.7592,-1.7633,-1.7671,-1.7728,-1.7758,-1.7805,-1.7807,-1.7803,-1.7794,-1.7798,-1.7782,-1.7778,0,0,0,-1.7514,-1.7523,-1.754,-1.7571,-1.7615,-1.7651,-1.7705,-1.7726,-1.7768,-1.7777,-1.7806,-1.7802,-1.7805,-1.7805,-1.7803,-1.7807,-1.7831,-1.7831,-1.7831,-1.7473,-1.751,-1.7534,-1.7581,-1.761,-1.7666,-1.7693,-1.7731,-1.776,-1.7766,-1.778,-1.7766,-1.7764,-1.7763,-1.7767,-1.7782,-1.7782,-1.7782,-1.7782,-1.7474,-1.7492,-1.753,-1.7566,-1.7604,-1.7636,-1.7689,-1.7708,-1.7743,-1.7758,-1.7763,-1.7776,-1.7758,-1.7763,-1.778,-1.778,-1.778,-1.7781,-1.7781,-1.7451,-1.7466,-1.7491,-1.7538,-1.7571,-1.7619,-1.7649,-1.7684,-1.7716,-1.7721,-1.7739,-1.774,-1.7744,-1.7727,-1.7727,-1.7727,-1.7727,-1.7727,-1.7727,-1.7417,-1.7446,-1.7468,-1.7514,-1.7537,-1.7573,-1.7628,-1.7652,-1.7688,-1.7711,-1.7711,-1.7738,-1.775,-1.7751,-1.7727,-1.7727,-1.7727,-1.7727,-1.7727,-1.7403,-1.7411,-1.7445,-1.7468,-1.7525,-1.7554,-1.7597,-1.7644,-1.7669,-1.7683,-1.7709,-1.7712,-1.7726,-1.7729,-1.773,-1.7702,-1.7702,-1.7702,-1.7702,-1.7383,-1.7393,-1.7434,-1.7469,-1.7508,-1.755,-1.7586,-1.7628,-1.7674,-1.7692,-1.7701,-1.7706,-1.7707,-1.7721,-1.7723,-1.7725,-1.7696,-1.7696,-1.7696,-1.7376,-1.7392,-1.7416,-1.746,-1.7506,-1.7545,-1.758,-1.7619,-1.7672,-1.7697,-1.7706,-1.7706,-1.7715,-1.7716,-1.774,-1.7743,-1.7748,0,0]},{"header":{"parameterUnit":"m.s-1","parameterCategory":1,"la1":30.2992,"la2":30.254,"lo1":-89.0895,"lo2":-89.0443,"dy":0.0025,"dx":0.0025,"nx":19,"ny":19,"refTime":"2026-05-07T03:00:00:Z","depth":0,"parameterNumber":3,"parameterNumberName":"V-component_of_WINDS"},"data":[0,0,0,4.2275,4.2276,4.2327,4.2328,4.2386,4.2387,0,0,0,0,0,0,0,0,0,0,0,4.2259,4.2259,4.2275,4.2277,4.2327,4.2328,4.2386,4.2387,0,0,0,0,0,0,0,0,0,0,0,4.2259,4.2259,4.226,4.2277,4.2327,4.2328,4.2386,4.2349,0,0,0,0,0,0,0,0,0,0,4.2301,4.2285,4.2259,4.226,4.2277,4.2327,4.2328,4.2348,4.2352,4.2361,0,4.2372,0,4.238,4.2391,4.2391,0,0,0,4.2277,4.2281,4.2297,4.226,4.2278,4.2327,4.2305,4.235,4.2354,4.2367,4.2372,4.2375,4.2381,4.2391,4.2391,4.245,4.245,0,0,4.2274,4.2267,4.2294,4.23,4.2294,4.2303,4.2306,4.2353,4.2358,4.2373,4.2376,4.2382,4.2391,4.2392,4.2449,4.245,0,0,0,4.2266,4.2265,4.2279,4.2297,4.2307,4.2304,4.2308,4.2356,4.2361,4.2377,4.2383,4.2392,4.2392,4.2449,4.245,4.2455,0,0,0,4.2264,4.226,4.2278,4.2273,4.2306,4.2332,4.231,4.2358,4.2363,4.2383,4.2392,4.2393,4.2449,4.2449,4.2454,4.2458,0,0,0,4.2256,4.2259,4.2266,4.2273,4.2295,4.2332,4.234,4.2359,4.2367,4.2391,4.2393,4.2449,4.2449,4.2453,4.2457,4.247,0,0,0,4.2244,4.2269,4.2266,4.2296,4.2294,4.2336,4.234,4.237,4.2391,4.2392,4.2449,4.245,4.2453,4.2456,4.247,4.248,4.2484,0,0,4.2271,4.2272,4.229,4.2289,4.2329,4.2328,4.2368,4.2394,4.2402,4.2433,4.2434,4.2454,4.2457,4.247,4.2511,4.2514,0,0,0,4.2296,4.2309,4.2321,4.2342,4.2363,4.2381,4.2402,4.2411,4.2438,4.2417,4.2464,4.2465,4.2473,4.2479,4.2481,4.2488,4.2452,4.2452,4.2452,4.2322,4.2333,4.2363,4.238,4.2399,4.2421,4.2437,4.2453,4.2457,4.2467,4.2476,4.25,4.2505,4.2507,4.2515,4.2483,4.2483,4.2483,4.2483,4.2362,4.2381,4.2387,4.2418,4.2428,4.2454,4.2475,4.2477,4.2501,4.2494,4.2502,4.2492,4.2511,4.2517,4.2484,4.2484,4.2484,4.2484,4.2484,4.2379,4.239,4.2403,4.2433,4.2455,4.247,4.2493,4.2502,4.2509,4.2517,4.2527,4.2527,4.2526,4.2521,4.2521,4.2522,4.2522,4.2522,4.2522,4.2392,4.2406,4.2426,4.245,4.2464,4.2484,4.2505,4.2518,4.2534,4.2538,4.2538,4.254,4.2511,4.2503,4.2523,4.2523,4.2523,4.2522,4.2522,4.2427,4.2421,4.2451,4.2465,4.2494,4.2514,4.2525,4.2551,4.2563,4.2574,4.2575,4.2552,4.2553,4.2551,4.2544,4.2573,4.2573,4.2573,4.2573,4.2441,4.2443,4.2475,4.2497,4.2519,4.2532,4.2563,4.2579,4.2595,4.2602,4.2599,4.2591,4.2589,4.2591,4.2588,4.2582,4.262,4.262,4.262,4.2462,4.2467,4.2493,4.251,4.2533,4.2552,4.2581,4.2604,4.262,4.2622,4.2608,4.2606,4.2593,4.2589,4.259,4.2585,4.2574,0,0]}]]